Orlando, FL

3:23 AM EDT on July 29, 2016 (GMT -0400)
Orlando International

Weather History for KMCO - June, 2013

Change the Weather History Date:

Thursday, June 6, 2013

  Actual Average Record
Temperature  
Mean Temperature 76 °F 81 °F  
Max Temperature 79 °F 90 °F 101 °F (1927)
Min Temperature 73 °F 71 °F 61 °F (1931)
Degree Days  
Heating Degree Days 0 0  
Month to date heating degree days 0 0  
Since 1 June heating degree days 0 0  
Since 1 July heating degree days 461 571  
Cooling Degree Days 11 16  
Month to date cooling degree days 91 92  
Year to date cooling degree days 963 893  
Since 1 June cooling degree days 91 92  
Growing Degree Days 26 (Base 50)    
Moisture  
Dew Point 74 °F    
Average Humidity 91    
Maximum Humidity 100    
Minimum Humidity 82    
Precipitation  
Precipitation 3.20 in 0.24 in 3.60 in (1941)
Month to date precipitation 4.77 1.40  
Year to date precipitation 15.64 16.03  
Sea Level Pressure  
Sea Level Pressure 29.78 in    
Wind  
Wind Speed 13 mph (SSE)    
Max Wind Speed 28 mph    
Max Gust Speed 38 mph    
Visibility 6 miles    
Events Rain    
T = Trace of Precipitation, MM = Missing Value Source: NWS Daily Summary

Daily Weather History Graph

Daily Weather History Graph

Search for Another Location

Airport or City:

Trip Planner

Search our weather history database for the weather conditions in past years. The results will help you decide how hot, cold, wet, or windy it might be!

Date:

Astronomy

Jun. 06, 2013 Rise Set
Actual Time 6:27 AM EDT 8:20 PM EDT
Civil Twilight 6:00 AM EDT 8:47 PM EDT
Nautical Twilight 5:28 AM EDT 9:19 PM EDT
Astronomical Twilight 4:54 AM EDT 9:53 PM EDT
Moon 5:00 AM EDT (6/6) 6:47 PM EDT (6/6)
Length of Visible Light 14h 46m
Length of Day
13h 53m
Waning Crescent, 4% of the Moon is Illuminated
Jun 6
Waning Crescent
Jun 8
New
Jun 16
First Quarter
Jun 23
Full
Jun 30
Last Quarter

Hourly Weather History & Observations

Time (EDT) Temp. Dew Point Humidity Pressure Visibility Wind Dir Wind Speed Gust Speed Precip Events Conditions
12:53 AM 75.9 °F 73.9 °F 94% 29.93 in 10.0 mi ESE 6.9 mph - 0.00 in Rain Light Rain
1:53 AM 75.9 °F 75.0 °F 97% 29.91 in 10.0 mi ESE 5.8 mph - 0.01 in Rain Light Rain
2:53 AM 75.9 °F 73.9 °F 94% 29.88 in 10.0 mi ESE 8.1 mph - 0.01 in Rain Light Rain
3:53 AM 75.9 °F 73.9 °F 94% 29.85 in 10.0 mi East 10.4 mph - 0.07 in Rain Light Rain
4:53 AM 75.9 °F 73.9 °F 94% 29.84 in 10.0 mi ESE 15.0 mph 21.9 mph 0.01 in Rain Light Rain
5:53 AM 75.0 °F 75.0 °F 100% 29.84 in 7.0 mi East 10.4 mph - 0.11 in Rain Rain
6:32 AM 75.2 °F 75.2 °F 100% 29.84 in 2.0 mi East 9.2 mph - 0.15 in Rain Heavy Rain
6:42 AM 75.2 °F 75.2 °F 100% 29.84 in 1.5 mi East 9.2 mph - 0.24 in Rain Heavy Rain
6:53 AM 75.0 °F 75.0 °F 100% 29.84 in 1.5 mi ESE 5.8 mph - 0.36 in Rain Heavy Rain
7:07 AM 73.4 °F 73.4 °F 100% 29.84 in 0.5 mi East 9.2 mph - 0.31 in Rain Heavy Rain
7:30 AM 73.4 °F 73.4 °F 100% 29.84 in 0.5 mi ESE 21.9 mph 27.6 mph 0.69 in Rain Heavy Rain
7:53 AM 73.9 °F 73.9 °F 100% 29.84 in 0.5 mi SSE 17.3 mph 26.5 mph 1.03 in Rain Heavy Rain
8:15 AM 73.4 °F 73.4 °F 100% 29.85 in 1.0 mi SE 17.3 mph 27.6 mph 0.11 in Rain Rain
8:43 AM 73.4 °F 73.4 °F 100% 29.86 in 2.0 mi ESE 12.7 mph - 0.22 in Rain Rain
8:53 AM 73.0 °F 73.0 °F 100% 29.85 in 2.0 mi ESE 11.5 mph - 0.23 in Rain Light Rain
9:30 AM 73.4 °F 73.4 °F 100% 29.84 in 8.0 mi ESE 15.0 mph 19.6 mph 0.02 in Rain Light Rain
9:53 AM 73.9 °F 73.9 °F 100% 29.83 in 10.0 mi ESE 11.5 mph - 0.02 in Rain Light Rain
10:53 AM 75.0 °F 75.0 °F 100% 29.83 in 3.0 mi South 5.8 mph - 0.07 in Rain Heavy Rain
10:58 AM 75.2 °F 75.2 °F 100% 29.83 in 3.0 mi South 6.9 mph - 0.08 in Rain Heavy Rain
11:05 AM 75.2 °F 75.2 °F 100% 29.83 in 2.0 mi SE 8.1 mph - 0.15 in Rain Heavy Rain
11:21 AM 75.2 °F 75.2 °F 100% 29.83 in 1.0 mi SE 18.4 mph 25.3 mph 0.29 in Rain Heavy Rain
11:22 AM 75.2 °F 75.2 °F 100% 29.83 in 0.5 mi SSE 19.6 mph 25.3 mph 0.32 in Rain Heavy Rain
11:53 AM 75.0 °F 75.0 °F 100% 29.80 in 0.5 mi ESE 17.3 mph 24.2 mph 0.80 in Rain Heavy Rain
12:09 PM 75.2 °F 75.2 °F 100% 29.80 in 5.0 mi SSE 6.9 mph - 0.06 in Rain Light Rain
12:53 PM 77.0 °F 77.0 °F 100% 29.78 in 10.0 mi SSE 12.7 mph - 0.09 in Rain Light Rain
1:22 PM 77.0 °F 77.0 °F 100% 29.77 in 1.0 mi SSE 16.1 mph 23.0 mph 0.02 in Rain Rain
1:43 PM 77.0 °F 77.0 °F 100% 29.75 in 1.0 mi South 23.0 mph 35.7 mph 0.17 in Rain Light Rain
1:53 PM 78.1 °F 77.0 °F 96% 29.75 in 4.0 mi SSE 15.0 mph 28.8 mph 0.19 in Rain Rain
2:06 PM 78.8 °F 77.0 °F 94% 29.75 in 5.0 mi SSE 17.3 mph 25.3 mph 0.04 in Rain Rain
2:19 PM 78.8 °F 75.2 °F 89% 29.75 in 7.0 mi South 18.4 mph 36.8 mph 0.07 in Rain Light Rain
2:32 PM 78.8 °F 75.2 °F 89% 29.74 in 10.0 mi SSE 18.4 mph 26.5 mph 0.08 in Rain Light Rain
2:53 PM 79.0 °F 75.9 °F 90% 29.73 in 10.0 mi SSE 16.1 mph 26.5 mph 0.08 in   Overcast
3:04 PM 78.8 °F 75.2 °F 89% 29.72 in 10.0 mi SSE 16.1 mph 24.2 mph 0.00 in Rain Light Rain
3:53 PM 79.0 °F 73.9 °F 84% 29.72 in 10.0 mi South 24.2 mph 34.5 mph 0.00 in   Overcast
4:00 PM 78.8 °F 73.4 °F 83% 29.71 in 10.0 mi South 19.6 mph 34.5 mph N/A   Overcast
4:12 PM 77.0 °F 71.6 °F 83% 29.72 in 10.0 mi South 17.3 mph 26.5 mph 0.00 in Rain Light Rain
4:53 PM 75.9 °F 69.1 °F 79% 29.70 in 10.0 mi South 13.8 mph - 0.00 in   Overcast
5:17 PM 75.2 °F 69.8 °F 83% 29.71 in 10.0 mi South 15.0 mph 24.2 mph N/A   Overcast
5:53 PM 75.9 °F 70.0 °F 82% 29.71 in 10.0 mi South 13.8 mph 24.2 mph N/A   Overcast
6:27 PM 73.4 °F 71.6 °F 94% 29.71 in 4.0 mi South 13.8 mph - 0.00 in Rain Light Rain
6:53 PM 73.9 °F 73.0 °F 97% 29.70 in 1.5 mi South 17.3 mph 24.2 mph 0.00 in Rain Light Rain
7:10 PM 73.4 °F 73.4 °F 100% 29.69 in 7.0 mi South 16.1 mph 23.0 mph 0.00 in Rain Light Rain
7:26 PM 73.4 °F 73.4 °F 100% 29.70 in 4.0 mi South 15.0 mph 23.0 mph 0.00 in Rain Light Rain
7:31 PM 73.4 °F 73.4 °F 100% 29.70 in 2.0 mi South 12.7 mph 23.0 mph 0.01 in Rain Rain
7:39 PM 73.4 °F 73.4 °F 100% 29.71 in 1.5 mi SW 13.8 mph 20.7 mph 0.02 in Rain Rain
7:53 PM 73.9 °F 73.0 °F 97% 29.71 in 1.5 mi SSW 11.5 mph - 0.10 in Rain Light Rain
7:57 PM 73.4 °F 73.4 °F 100% 29.71 in 3.0 mi SSW 13.8 mph 19.6 mph 0.01 in Rain Rain
8:07 PM 75.2 °F 73.4 °F 94% 29.71 in 9.0 mi SSW 16.1 mph 24.2 mph 0.02 in Rain Light Rain
8:19 PM 75.2 °F 73.4 °F 94% 29.72 in 10.0 mi SSW 15.0 mph - 0.02 in   Overcast
8:31 PM 73.4 °F 73.4 °F 100% 29.72 in 10.0 mi South 12.7 mph - 0.02 in   Overcast
8:43 PM 73.4 °F 73.4 °F 100% 29.73 in 10.0 mi South 11.5 mph - 0.02 in   Overcast
8:53 PM 73.9 °F 73.0 °F 97% 29.73 in 10.0 mi South 11.5 mph - 0.02 in   Overcast
9:15 PM 73.4 °F 73.4 °F 100% 29.75 in 10.0 mi South 12.7 mph - N/A   Overcast
9:53 PM 73.9 °F 73.0 °F 97% 29.76 in 10.0 mi South 12.7 mph - N/A   Mostly Cloudy
9:58 PM 73.4 °F 73.4 °F 100% 29.77 in 10.0 mi South 15.0 mph - N/A   Mostly Cloudy
10:09 PM 73.4 °F 73.4 °F 100% 29.77 in 10.0 mi South 12.7 mph - N/A   Mostly Cloudy
10:22 PM 73.4 °F 73.4 °F 100% 29.78 in 10.0 mi South 13.8 mph - N/A   Scattered Clouds
10:53 PM 75.0 °F 73.0 °F 94% 29.79 in 10.0 mi SSW 12.7 mph - N/A   Scattered Clouds
11:09 PM 75.2 °F 73.4 °F 94% 29.79 in 10.0 mi SSW 11.5 mph - N/A   Mostly Cloudy
11:34 PM 75.2 °F 73.4 °F 94% 29.79 in 10.0 mi SSW 16.1 mph 20.7 mph N/A   Mostly Cloudy
11:40 PM 75.2 °F 73.4 °F 94% 29.80 in 10.0 mi SSW 11.5 mph 20.7 mph N/A   Mostly Cloudy
11:53 PM 75.0 °F 73.0 °F 94% 29.80 in 10.0 mi SSW 10.4 mph - N/A   Mostly Cloudy